Weather in Kansas City

United States     39°06′30″N   94°33′10″W
В апреле 2022 года жителям России запретили посещать сайт meteo.paraplan.net по решению Генеральной прокуратуры. Аудитория сайта уменьшилась в 10 раз. Владельцы сайта не видят смысла в поддержке погодного сервера в таких условиях. Сайт будет закрыт в октябре.
temp.,
°C
wind,
m/s
gust,
m/s
humid.,
%
clouds,
%
prec.,
mm/h
press.,
hPa
HPBL,
m
4 october, tue
tue401:00+15se4115722 0.0 1022213
04:00+13se374750 0.0 1021127
07:00+12sse354783 0.0 102295
10:00+20sse3530100 0.0 1021378
13:00+27sse442313 0.0 10191233
16:00+29sse332096 0.0 10162415
19:00+23ese3528100 0.0 101683
22:00+19se41033100 0.0 1017204
5 october, wed
wed501:00+19sse51226100 0.0 1017308
04:00+19s41128100 0.0 1017314
07:00+18ssw4936100 0.0 1017199
10:00+23w463151 0.0 1018631
13:00+27wnw33257 0.0 10171187
16:00+29nw48233 0.0 10143051
19:00+24nw49281 0.0 1016281
22:00+19nw24410 0.0 101769
6 october, thu
thu601:00+17nw23470 0.0 101854
04:00+17nw22540 0.0 101830
07:00+16wnw23610 0.0 101951
10:00+23nw35380 0.0 1020430
13:00+28nw46236 0.0 10192882
16:00+29nw5621100 0.0 10183173
19:00+23nw353063 0.0 1019111
22:00+19nne512495 0.0 1023709
7 october, fri
fri701:00+15nne6114418 0.0 1026590
04:00+10nne4105543 0.0 1028490
07:00+8nne396149 0.0 1030339
10:00+12nne56529 0.0 1031737
13:00+17nne45315 0.0 10291295
16:00+19nne44230 0.0 10271514
19:00+14ne34311 0.0 1027107
22:00+10ene243991 0.0 102975
8 october, sat
sat801:00+9e2341100 0.0 102966
04:00+8se224566 0.0 102953
07:00+7s234768 0.0 102958
10:00+13ssw233290 0.0 1029346
13:00+20sw12255 0.0 1026943
16:00+24wsw34255 0.0 10231651
19:00+18wsw113413 0.0 102211
22:00+15ssw233989 0.0 102240